BSAT-3C (JCSAT-110R)

Last updated on Dec. 9, 2021, 12:02 a.m. UTC

1 37776U 11041B   21342.59779675 -.00000351  00000+0  00000+0 0  9992
2 37776   0.0303  59.0032 0000048 299.4253  44.3092  1.00270714 33913
UTC
Height (km)
Latitude
Longitude
Inclination
Orbital Period
UTC large
Height (km)
Speed (km/s)
/
Latitude / Longitude
Inclination (degrees)
Orbital Period (minutes)
Azimuth
Elevation
Range (km)
Doppler Factor
iOS Compass Heading
iOS Angle